Location: *
(24.1434°N, 56.8729°E)
Time: 05:40:02
(UTC+00:00)

CZ-2C R/B - Pass Details

Date: 09 April 2020
Orbit: 705 x 907 km, 98.1° (Epoch: 05 June)

Event Time Altitude Azimuth Distance (km) Brightness Sun altitude
Exits shadow 15:07:35 10° 118° (ESE) 2,266 4.8 -8.8°
Reaches altitude 10° 15:07:38 10° 117° (ESE) 2,252 4.8 -8.8°
Maximum altitude 15:11:05 19° 72° (ENE) 1,672 4.3 -9.6°
Drops below altitude 10° 15:14:28 10° 27° (NNE) 2,199 5.2 -10.3°
Sets 15:17:15 0° 10° (N) 3,105 6.2 -11.0°
